{"data":{"norad_id":60394,"epoch":"2026-05-25T02:55:37.852032Z","epoch_age_seconds":64435,"freshness":"FRESH","line1":"1 60394U 24140R   26145.12196588  .00000085  00000+0  11185-3 0  9992","line2":"2 60394  88.9714 282.4337 0016664 100.8500 259.4527 13.51005933 89233","mean_motion":13.51005933,"eccentricity":0.0016664,"inclination_deg":88.9714,"raan_deg":282.4337,"arg_perigee_deg":100.85,"mean_anomaly_deg":259.4527,"bstar":0.00011185,"rev_number":8923,"period_min":106.58724472086,"perigee_km":1056.1506079883,"apogee_km":1080.9689590284,"semimajor_km":7446.6967835083,"source":"CELESTRAK","updated_at":"2026-05-25T13:38:02.043670Z"}}